TimeCDT,TemperatureF,Dew PointF,Humidity,Sea Level PressureIn,VisibilityMPH,Wind Direction,Wind SpeedMPH,Gust SpeedMPH,PrecipitationIn,Events,Conditions,WindDirDegrees,DateUTC
12:52 AM,59.0,55.0,87,29.99,10.0,SSE,5.8,-,N/A,,Clear,160,2012-09-02 05:52:00
1:52 AM,57.0,53.1,87,30.00,10.0,Calm,Calm,-,N/A,,Clear,0,2012-09-02 06:52:00
2:52 AM,55.9,53.1,90,29.99,10.0,Calm,Calm,-,N/A,,Clear,0,2012-09-02 07:52:00
3:52 AM,55.9,52.0,87,29.98,10.0,SSE,5.8,-,N/A,,Clear,160,2012-09-02 08:52:00
4:52 AM,55.9,52.0,87,29.97,10.0,South,3.5,-,N/A,,Clear,170,2012-09-02 09:52:00
5:52 AM,55.9,52.0,87,29.97,10.0,South,4.6,-,N/A,,Clear,180,2012-09-02 10:52:00
6:52 AM,55.0,51.1,86,29.97,10.0,South,4.6,-,N/A,,Clear,180,2012-09-02 11:52:00
7:52 AM,60.1,55.0,83,29.98,10.0,SSW,3.5,-,N/A,,Clear,200,2012-09-02 12:52:00
8:52 AM,66.0,55.9,70,29.98,10.0,South,5.8,-,N/A,,Clear,180,2012-09-02 13:52:00
9:52 AM,72.0,57.9,61,29.97,10.0,SSW,6.9,-,N/A,,Clear,200,2012-09-02 14:52:00
10:52 AM,77.0,61.0,58,29.96,10.0,South,8.1,-,N/A,,Clear,170,2012-09-02 15:52:00
11:52 AM,81.0,63.0,54,29.95,10.0,SSE,10.4,-,N/A,,Clear,150,2012-09-02 16:52:00
12:52 PM,84.0,63.0,49,29.92,10.0,SSE,11.5,-,N/A,,Clear,160,2012-09-02 17:52:00
1:52 PM,87.1,62.1,43,29.90,10.0,South,9.2,18.4,N/A,,Clear,170,2012-09-02 18:52:00
2:52 PM,89.1,62.1,40,29.88,10.0,South,11.5,17.3,N/A,,Clear,170,2012-09-02 19:52:00
3:52 PM,90.0,60.1,37,29.86,10.0,South,16.1,21.9,N/A,,Clear,170,2012-09-02 20:52:00
4:52 PM,89.1,60.1,38,29.86,10.0,SSE,13.8,-,N/A,,Clear,160,2012-09-02 21:52:00
5:52 PM,88.0,59.0,37,29.86,10.0,South,11.5,-,N/A,,Clear,180,2012-09-02 22:52:00
6:52 PM,84.9,62.1,46,29.86,10.0,South,6.9,-,N/A,,Clear,170,2012-09-02 23:52:00
7:52 PM,75.9,63.0,64,29.86,10.0,South,6.9,-,N/A,,Clear,170,2012-09-03 00:52:00
8:52 PM,75.9,62.1,62,29.85,10.0,SSE,8.1,-,N/A,,Clear,160,2012-09-03 01:52:00
9:52 PM,77.0,62.1,60,29.86,10.0,South,5.8,-,N/A,,Clear,190,2012-09-03 02:52:00
11:52 PM,71.1,63.0,75,29.86,10.0,South,6.9,-,N/A,,Clear,180,2012-09-03 04:52:00